Time,TemperatureF,DewpointF,PressureIn,WindDirection,WindDirectionDegrees,WindSpeedMPH,WindSpeedGustMPH,Humidity,HourlyPrecipIn,Conditions,Clouds,dailyrainin,SoftwareType,DateUTC
2013-02-17 00:00:00,32.0,23.7,30.05,NW,315,3.0,3.0,71,0.00,,,0.00,Wunderground v.1.15,2013-02-17 06:00:00,
2013-02-17 00:10:00,32.0,23.7,30.05,NW,309,3.0,3.0,71,0.00,,,0.00,Wunderground v.1.15,2013-02-17 06:10:00,
2013-02-17 00:15:00,32.0,23.7,30.05,NW,314,3.0,3.0,71,0.00,,,0.00,Wunderground v.1.15,2013-02-17 06:15:00,
2013-02-17 00:20:00,32.0,24.0,30.04,NW,313,3.0,3.0,72,0.00,,,0.00,Wunderground v.1.15,2013-02-17 06:20:00,
2013-02-17 00:40:00,31.8,23.8,30.04,NW,307,3.0,3.0,72,0.00,,,0.00,Wunderground v.1.15,2013-02-17 06:40:00,
2013-02-17 00:45:00,31.8,23.8,30.04,NW,313,3.0,8.0,72,0.00,,,0.00,Wunderground v.1.15,2013-02-17 06:45:00,
2013-02-17 00:50:00,31.8,23.8,30.04,NW,312,4.0,4.0,72,0.00,,,0.00,Wunderground v.1.15,2013-02-17 06:50:00,
2013-02-17 00:55:00,31.8,23.8,30.04,NW,308,4.0,4.0,72,0.00,,,0.00,Wunderground v.1.15,2013-02-17 06:55:00,
2013-02-17 01:00:00,31.8,23.5,30.04,North,11,3.0,4.0,71,0.00,,,0.00,Wunderground v.1.15,2013-02-17 07:00:00,
2013-02-17 01:10:00,31.9,23.6,30.04,NNW,336,4.0,5.0,71,0.00,,,0.00,Wunderground v.1.15,2013-02-17 07:10:00,
2013-02-17 01:15:00,31.9,23.6,30.04,NW,312,4.0,5.0,71,0.00,,,0.00,Wunderground v.1.15,2013-02-17 07:15:00,
2013-02-17 01:20:00,31.9,23.6,30.04,NW,322,3.0,3.0,71,0.00,,,0.00,Wunderground v.1.15,2013-02-17 07:20:00,
2013-02-17 01:25:00,31.9,23.2,30.04,NNE,15,3.0,4.0,70,0.00,,,0.00,Wunderground v.1.15,2013-02-17 07:25:00,
2013-02-17 01:30:00,31.9,23.2,30.04,NW,313,3.0,3.0,70,0.00,,,0.00,Wunderground v.1.15,2013-02-17 07:30:00,
2013-02-17 01:40:00,32.0,23.3,30.03,NW,319,3.0,4.0,70,0.00,,,0.00,Wunderground v.1.15,2013-02-17 07:40:00,
2013-02-17 01:45:00,31.9,22.9,30.03,NW,323,3.0,5.0,69,0.00,,,0.00,Wunderground v.1.15,2013-02-17 07:45:00,
2013-02-17 01:50:00,31.9,22.9,30.03,WNW,297,4.0,4.0,69,0.00,,,0.00,Wunderground v.1.15,2013-02-17 07:50:00,
2013-02-17 01:55:00,31.9,22.9,30.03,NW,315,4.0,4.0,69,0.00,,,0.00,Wunderground v.1.15,2013-02-17 07:55:00,
2013-02-17 02:00:00,31.8,22.8,30.02,NW,322,4.0,4.0,69,0.00,,,0.00,Wunderground v.1.15,2013-02-17 08:00:00,
2013-02-17 02:10:00,31.5,22.5,30.02,NNW,339,3.0,3.0,69,0.00,,,0.00,Wunderground v.1.15,2013-02-17 08:10:00,
2013-02-17 02:15:00,31.3,22.3,30.02,NW,319,3.0,3.0,69,0.00,,,0.00,Wunderground v.1.15,2013-02-17 08:15:00,
2013-02-17 02:25:00,31.1,22.1,30.02,NW,309,3.0,3.0,69,0.00,,,0.00,Wunderground v.1.15,2013-02-17 08:25:00,
2013-02-17 02:30:00,30.9,21.9,30.02,NW,315,3.0,4.0,69,0.00,,,0.00,Wunderground v.1.15,2013-02-17 08:30:00,
2013-02-17 02:35:00,30.8,21.8,30.02,NW,312,2.0,4.0,69,0.00,,,0.00,Wunderground v.1.15,2013-02-17 08:35:00,
2013-02-17 02:40:00,30.7,21.7,30.03,NW,314,2.0,2.0,69,0.00,,,0.00,Wunderground v.1.15,2013-02-17 08:40:00,
2013-02-17 02:45:00,30.6,22.0,30.02,WNW,300,2.0,2.0,70,0.00,,,0.00,Wunderground v.1.15,2013-02-17 08:45:00,
2013-02-17 02:50:00,30.5,21.9,30.02,WNW,300,2.0,2.0,70,0.00,,,0.00,Wunderground v.1.15,2013-02-17 08:50:00,
2013-02-17 02:55:00,30.4,21.8,30.02,NW,312,2.0,2.0,70,0.00,,,0.00,Wunderground v.1.15,2013-02-17 08:55:00,
2013-02-17 03:00:00,30.4,21.8,30.02,NW,307,1.0,2.0,70,0.00,,,0.00,Wunderground v.1.15,2013-02-17 09:00:00,
2013-02-17 03:10:00,30.2,21.6,30.01,WNW,302,2.0,2.0,70,0.00,,,0.00,Wunderground v.1.15,2013-02-17 09:10:00,
2013-02-17 03:15:00,30.1,21.5,30.01,WNW,298,2.0,2.0,70,0.00,,,0.00,Wunderground v.1.15,2013-02-17 09:15:00,
2013-02-17 03:20:00,30.1,21.5,30.01,WNW,288,2.0,2.0,70,0.00,,,0.00,Wunderground v.1.15,2013-02-17 09:20:00,
2013-02-17 03:25:00,30.0,21.4,30.01,NW,306,2.0,2.0,70,0.00,,,0.00,Wunderground v.1.15,2013-02-17 09:25:00,
2013-02-17 03:35:00,29.6,21.0,30.00,NW,304,1.0,1.0,70,0.00,,,0.00,Wunderground v.1.15,2013-02-17 09:35:00,
2013-02-17 03:45:00,29.3,21.1,30.00,WNW,287,1.0,3.0,71,0.00,,,0.00,Wunderground v.1.15,2013-02-17 09:45:00,
2013-02-17 03:50:00,29.3,21.4,30.00,NNW,335,1.0,1.0,72,0.00,,,0.00,Wunderground v.1.15,2013-02-17 09:50:00,
2013-02-17 03:55:00,29.1,21.2,30.00,WNW,285,1.0,1.0,72,0.00,,,0.00,Wunderground v.1.15,2013-02-17 09:55:00,
2013-02-17 04:00:00,29.0,21.4,30.00,WNW,291,1.0,1.0,73,0.00,,,0.00,Wunderground v.1.15,2013-02-17 10:00:00,
2013-02-17 04:10:00,28.8,21.2,30.00,WNW,294,1.0,1.0,73,0.00,,,0.00,Wunderground v.1.15,2013-02-17 10:10:00,
2013-02-17 04:15:00,28.8,21.2,30.00,WNW,297,1.0,1.0,73,0.00,,,0.00,Wunderground v.1.15,2013-02-17 10:15:00,
2013-02-17 04:20:00,28.6,21.0,30.00,West,281,1.0,1.0,73,0.00,,,0.00,Wunderground v.1.15,2013-02-17 10:20:00,
2013-02-17 04:25:00,28.5,21.3,30.00,WNW,293,1.0,1.0,74,0.00,,,0.00,Wunderground v.1.15,2013-02-17 10:25:00,
2013-02-17 04:30:00,28.4,21.2,30.00,WNW,290,1.0,1.0,74,0.00,,,0.00,Wunderground v.1.15,2013-02-17 10:30:00,
2013-02-17 04:35:00,28.4,21.2,30.00,West,280,1.0,1.0,74,0.00,,,0.00,Wunderground v.1.15,2013-02-17 10:35:00,
2013-02-17 04:40:00,28.3,21.1,30.00,NW,304,1.0,1.0,74,0.00,,,0.00,Wunderground v.1.15,2013-02-17 10:40:00,
2013-02-17 04:50:00,28.1,21.2,30.00,WNW,295,1.0,1.0,75,0.00,,,0.00,Wunderground v.1.15,2013-02-17 10:50:00,
2013-02-17 04:55:00,28.0,21.1,30.00,WNW,287,1.0,1.0,75,0.00,,,0.00,Wunderground v.1.15,2013-02-17 10:55:00,
2013-02-17 05:00:00,27.9,21.3,30.00,West,277,1.0,1.0,76,0.00,,,0.00,Wunderground v.1.15,2013-02-17 11:00:00,
2013-02-17 05:10:00,27.7,21.1,30.00,WNW,283,1.0,2.0,76,0.00,,,0.00,Wunderground v.1.15,2013-02-17 11:10:00,
2013-02-17 05:15:00,27.8,21.2,30.00,West,276,1.0,2.0,76,0.00,,,0.00,Wunderground v.1.15,2013-02-17 11:15:00,
2013-02-17 05:25:00,27.6,21.0,30.00,West,280,1.0,1.0,76,0.00,,,0.00,Wunderground v.1.15,2013-02-17 11:25:00,
2013-02-17 05:30:00,27.5,20.9,30.00,WNW,283,1.0,1.0,76,0.00,,,0.00,Wunderground v.1.15,2013-02-17 11:30:00,
2013-02-17 05:35:00,27.5,20.9,30.00,West,278,1.0,1.0,76,0.00,,,0.00,Wunderground v.1.15,2013-02-17 11:35:00,
2013-02-17 05:40:00,27.4,20.8,30.00,WNW,298,1.0,2.0,76,0.00,,,0.00,Wunderground v.1.15,2013-02-17 11:40:00,
2013-02-17 05:45:00,27.4,20.8,30.00,West,281,1.0,2.0,76,0.00,,,0.00,Wunderground v.1.15,2013-02-17 11:45:00,
2013-02-17 05:50:00,27.4,20.8,30.00,West,278,2.0,2.0,76,0.00,,,0.00,Wunderground v.1.15,2013-02-17 11:50:00,
2013-02-17 06:00:00,27.1,20.8,30.00,West,269,1.0,2.0,77,0.00,,,0.00,Wunderground v.1.15,2013-02-17 12:00:00,
2013-02-17 06:05:00,27.1,20.8,30.00,West,274,2.0,2.0,77,0.00,,,0.00,Wunderground v.1.15,2013-02-17 12:05:00,
2013-02-17 06:15:00,27.0,20.7,30.00,West,277,1.0,2.0,77,0.00,,,0.00,Wunderground v.1.15,2013-02-17 12:15:00,
2013-02-17 06:20:00,26.9,21.0,30.00,West,273,2.0,2.0,78,0.00,,,0.00,Wunderground v.1.15,2013-02-17 12:20:00,
2013-02-17 06:30:00,26.8,20.9,30.00,West,267,2.0,2.0,78,0.00,,,0.00,Wunderground v.1.15,2013-02-17 12:30:00,
2013-02-17 06:35:00,26.7,20.8,30.00,West,271,2.0,2.0,78,0.00,,,0.00,Wunderground v.1.15,2013-02-17 12:35:00,
2013-02-17 06:45:00,26.5,20.9,30.00,West,277,1.0,2.0,79,0.00,,,0.00,Wunderground v.1.15,2013-02-17 12:45:00,
2013-02-17 06:50:00,26.5,20.9,29.99,West,277,1.0,1.0,79,0.00,,,0.00,Wunderground v.1.15,2013-02-17 12:50:00,
2013-02-17 06:55:00,26.4,20.8,29.99,West,281,1.0,1.0,79,0.00,,,0.00,Wunderground v.1.15,2013-02-17 12:55:00,
2013-02-17 07:05:00,26.2,20.9,29.99,West,281,1.0,2.0,80,0.00,,,0.00,Wunderground v.1.15,2013-02-17 13:05:00,
2013-02-17 07:10:00,26.2,20.9,29.99,West,273,1.0,1.0,80,0.00,,,0.00,Wunderground v.1.15,2013-02-17 13:10:00,
2013-02-17 07:20:00,26.3,21.0,29.99,West,274,1.0,1.0,80,0.00,,,0.00,Wunderground v.1.15,2013-02-17 13:20:00,
2013-02-17 07:25:00,26.5,21.2,29.99,WNW,293,1.0,2.0,80,0.00,,,0.00,Wunderground v.1.15,2013-02-17 13:25:00,
2013-02-17 07:35:00,27.1,21.5,29.98,WNW,294,2.0,2.0,79,0.00,,,0.00,Wunderground v.1.15,2013-02-17 13:35:00,
2013-02-17 07:40:00,27.5,21.5,29.98,West,280,2.0,2.0,78,0.00,,,0.00,Wunderground v.1.15,2013-02-17 13:40:00,
2013-02-17 07:45:00,27.8,21.8,29.98,NW,316,1.0,2.0,78,0.00,,,0.00,Wunderground v.1.15,2013-02-17 13:45:00,
2013-02-17 07:50:00,28.2,21.9,29.98,WNW,283,2.0,2.0,77,0.00,,,0.00,Wunderground v.1.15,2013-02-17 13:50:00,
2013-02-17 07:55:00,28.4,22.1,29.98,West,278,2.0,2.0,77,0.00,,,0.00,Wunderground v.1.15,2013-02-17 13:55:00,
2013-02-17 08:00:00,28.7,22.1,29.98,West,262,2.0,2.0,76,0.00,,,0.00,Wunderground v.1.15,2013-02-17 14:00:00,
2013-02-17 08:10:00,29.1,22.5,29.98,WNW,285,3.0,3.0,76,0.00,,,0.00,Wunderground v.1.15,2013-02-17 14:10:00,
2013-02-17 08:20:00,30.0,22.7,29.98,WNW,299,3.0,3.0,74,0.00,,,0.00,Wunderground v.1.15,2013-02-17 14:20:00,
2013-02-17 08:25:00,30.4,23.1,29.98,West,276,3.0,3.0,74,0.00,,,0.00,Wunderground v.1.15,2013-02-17 14:25:00,
2013-02-17 08:30:00,31.0,23.4,29.98,WNW,294,2.0,2.0,73,0.00,,,0.00,Wunderground v.1.15,2013-02-17 14:30:00,
2013-02-17 08:35:00,31.4,23.4,29.97,WNW,288,3.0,3.0,72,0.00,,,0.00,Wunderground v.1.15,2013-02-17 14:35:00,
2013-02-17 08:40:00,31.8,23.8,29.97,WNW,287,3.0,3.0,72,0.00,,,0.00,Wunderground v.1.15,2013-02-17 14:40:00,
2013-02-17 08:50:00,32.8,24.4,29.97,NW,325,3.0,3.0,71,0.00,,,0.00,Wunderground v.1.15,2013-02-17 14:50:00,
2013-02-17 08:55:00,33.4,24.7,29.97,WNW,287,3.0,5.0,70,0.00,,,0.00,Wunderground v.1.15,2013-02-17 14:55:00,
2013-02-17 09:05:00,34.7,25.2,29.97,NW,308,4.0,6.0,68,0.00,,,0.00,Wunderground v.1.15,2013-02-17 15:05:00,
2013-02-17 09:10:00,35.5,25.3,29.97,NW,314,4.0,4.0,66,0.00,,,0.00,Wunderground v.1.15,2013-02-17 15:10:00,
2013-02-17 09:15:00,36.1,25.5,29.96,NW,314,4.0,4.0,65,0.00,,,0.00,Wunderground v.1.15,2013-02-17 15:15:00,
2013-02-17 09:20:00,36.6,25.2,29.96,NW,304,4.0,4.0,63,0.00,,,0.00,Wunderground v.1.15,2013-02-17 15:20:00,
2013-02-17 09:30:00,38.5,25.8,29.96,NW,318,3.0,5.0,60,0.00,,,0.00,Wunderground v.1.15,2013-02-17 15:30:00,
2013-02-17 09:35:00,38.5,25.4,29.96,NW,322,5.0,5.0,59,0.00,,,0.00,Wunderground v.1.15,2013-02-17 15:35:00,
2013-02-17 09:40:00,39.2,26.5,29.96,NW,316,5.0,5.0,60,0.00,,,0.00,Wunderground v.1.15,2013-02-17 15:40:00,
2013-02-17 09:45:00,39.7,26.5,29.96,NNW,333,3.0,5.0,59,0.00,,,0.00,Wunderground v.1.15,2013-02-17 15:45:00,
2013-02-17 09:55:00,40.6,26.5,29.96,NNE,18,4.0,4.0,57,0.00,,,0.00,Wunderground v.1.15,2013-02-17 15:55:00,
2013-02-17 10:00:00,41.2,27.1,29.96,NW,314,3.0,3.0,57,0.00,,,0.00,Wunderground v.1.15,2013-02-17 16:00:00,
2013-02-17 10:10:00,41.5,27.0,29.96,North,349,3.0,4.0,56,0.00,,,0.00,Wunderground v.1.15,2013-02-17 16:10:00,
2013-02-17 10:20:00,42.2,27.2,29.95,NW,321,3.0,3.0,55,0.00,,,0.00,Wunderground v.1.15,2013-02-17 16:20:00,
2013-02-17 10:30:00,43.1,28.0,29.95,West,281,3.0,3.0,55,0.00,,,0.00,Wunderground v.1.15,2013-02-17 16:30:00,
2013-02-17 10:35:00,43.5,27.9,29.95,NE,51,3.0,4.0,54,0.00,,,0.00,Wunderground v.1.15,2013-02-17 16:35:00,
2013-02-17 10:40:00,43.6,28.5,29.95,WNW,291,3.0,3.0,55,0.00,,,0.00,Wunderground v.1.15,2013-02-17 16:40:00,
2013-02-17 10:45:00,43.7,27.7,29.94,WNW,288,4.0,7.0,53,0.00,,,0.00,Wunderground v.1.15,2013-02-17 16:45:00,
2013-02-17 10:55:00,44.0,28.4,29.94,NW,325,4.0,7.0,54,0.00,,,0.00,Wunderground v.1.15,2013-02-17 16:55:00,
2013-02-17 11:00:00,44.2,28.6,29.94,NNW,345,4.0,5.0,54,0.00,,,0.00,Wunderground v.1.15,2013-02-17 17:00:00,
2013-02-17 11:10:00,45.1,29.0,29.93,NW,314,4.0,4.0,53,0.00,,,0.00,Wunderground v.1.15,2013-02-17 17:10:00,
2013-02-17 11:15:00,45.4,29.7,29.93,NW,325,4.0,6.0,54,0.00,,,0.00,Wunderground v.1.15,2013-02-17 17:15:00,
2013-02-17 11:20:00,46.0,29.8,29.93,NW,314,4.0,4.0,53,0.00,,,0.00,Wunderground v.1.15,2013-02-17 17:20:00,
2013-02-17 11:30:00,46.3,29.6,29.93,NW,321,5.0,5.0,52,0.00,,,0.00,Wunderground v.1.15,2013-02-17 17:30:00,
2013-02-17 11:35:00,46.5,30.3,29.92,NW,314,6.0,8.0,53,0.00,,,0.00,Wunderground v.1.15,2013-02-17 17:35:00,
2013-02-17 11:40:00,46.7,30.5,29.92,NNW,337,5.0,6.0,53,0.00,,,0.00,Wunderground v.1.15,2013-02-17 17:40:00,
2013-02-17 11:50:00,47.5,30.7,29.91,West,264,4.0,4.0,52,0.00,,,0.00,Wunderground v.1.15,2013-02-17 17:50:00,
2013-02-17 11:55:00,47.6,30.8,29.91,NW,311,5.0,5.0,52,0.00,,,0.00,Wunderground v.1.15,2013-02-17 17:55:00,
2013-02-17 12:00:00,48.1,31.3,29.91,WNW,303,4.0,4.0,52,0.00,,,0.00,Wunderground v.1.15,2013-02-17 18:00:00,
2013-02-17 12:10:00,48.5,31.2,29.90,NNE,16,6.0,6.0,51,0.00,,,0.00,Wunderground v.1.15,2013-02-17 18:10:00,
2013-02-17 12:15:00,48.6,31.3,29.89,NNW,338,6.0,6.0,51,0.00,,,0.00,Wunderground v.1.15,2013-02-17 18:15:00,
2013-02-17 12:25:00,49.8,32.9,29.89,NW,305,5.0,6.0,52,0.00,,,0.00,Wunderground v.1.15,2013-02-17 18:25:00,
2013-02-17 12:35:00,50.7,32.2,29.88,North,356,5.0,9.0,49,0.00,,,0.00,Wunderground v.1.15,2013-02-17 18:35:00,
2013-02-17 12:40:00,50.5,32.0,29.87,NNW,333,5.0,10.0,49,0.00,,,0.00,Wunderground v.1.15,2013-02-17 18:40:00,
2013-02-17 12:45:00,50.7,32.2,29.87,NE,42,7.0,10.0,49,0.00,,,0.00,Wunderground v.1.15,2013-02-17 18:45:00,
2013-02-17 12:50:00,51.1,32.6,29.86,NNW,338,6.0,6.0,49,0.00,,,0.00,Wunderground v.1.15,2013-02-17 18:50:00,
2013-02-17 13:00:00,51.8,33.2,29.86,NNW,334,5.0,6.0,49,0.00,,,0.00,Wunderground v.1.15,2013-02-17 19:00:00,
2013-02-17 13:10:00,52.4,32.7,29.85,NNW,329,5.0,5.0,47,0.00,,,0.00,Wunderground v.1.15,2013-02-17 19:10:00,
2013-02-17 13:15:00,52.6,32.9,29.85,NW,318,4.0,5.0,47,0.00,,,0.00,Wunderground v.1.15,2013-02-17 19:15:00,
2013-02-17 13:20:00,52.7,33.0,29.85,North,360,5.0,5.0,47,0.00,,,0.00,Wunderground v.1.15,2013-02-17 19:20:00,
2013-02-17 13:25:00,52.9,33.7,29.84,NNW,328,5.0,5.0,48,0.00,,,0.00,Wunderground v.1.15,2013-02-17 19:25:00,
2013-02-17 13:30:00,53.2,33.5,29.84,NNW,330,5.0,8.0,47,0.00,,,0.00,Wunderground v.1.15,2013-02-17 19:30:00,
2013-02-17 13:35:00,53.2,33.5,29.84,WNW,293,6.0,8.0,47,0.00,,,0.00,Wunderground v.1.15,2013-02-17 19:35:00,
2013-02-17 13:40:00,53.6,33.3,29.83,NNW,338,5.0,12.0,46,0.00,,,0.00,Wunderground v.1.15,2013-02-17 19:40:00,
2013-02-17 13:50:00,53.7,33.9,29.83,West,274,7.0,7.0,47,0.00,,,0.00,Wunderground v.1.15,2013-02-17 19:50:00,
2013-02-17 13:55:00,53.9,33.6,29.82,WNW,303,6.0,7.0,46,0.00,,,0.00,Wunderground v.1.15,2013-02-17 19:55:00,
2013-02-17 14:00:00,54.0,33.1,29.82,WNW,290,6.0,6.0,45,0.00,,,0.00,Wunderground v.1.15,2013-02-17 20:00:00,
2013-02-17 14:10:00,54.5,33.6,29.82,NW,323,5.0,9.0,45,0.00,,,0.00,Wunderground v.1.15,2013-02-17 20:10:00,
2013-02-17 14:20:00,54.4,33.5,29.81,NW,322,8.0,11.0,45,0.00,,,0.00,Wunderground v.1.15,2013-02-17 20:20:00,
2013-02-17 14:30:00,54.8,33.8,29.81,WNW,302,6.0,6.0,45,0.00,,,0.00,Wunderground v.1.15,2013-02-17 20:30:00,
2013-02-17 14:40:00,55.5,33.9,29.80,NW,309,5.0,7.0,44,0.00,,,0.00,Wunderground v.1.15,2013-02-17 20:40:00,
2013-02-17 14:45:00,55.7,34.1,29.80,WNW,297,6.0,7.0,44,0.00,,,0.00,Wunderground v.1.15,2013-02-17 20:45:00,
2013-02-17 14:50:00,55.5,33.9,29.80,NNW,329,7.0,7.0,44,0.00,,,0.00,Wunderground v.1.15,2013-02-17 20:50:00,
2013-02-17 15:00:00,55.6,34.0,29.80,WNW,301,6.0,9.0,44,0.00,,,0.00,Wunderground v.1.15,2013-02-17 21:00:00,
2013-02-17 15:10:00,56.1,34.5,29.79,NW,325,5.0,6.0,44,0.00,,,0.00,Wunderground v.1.15,2013-02-17 21:10:00,
2013-02-17 15:15:00,56.2,34.0,29.79,North,359,5.0,6.0,43,0.00,,,0.00,Wunderground v.1.15,2013-02-17 21:15:00,
2013-02-17 15:20:00,56.3,34.1,29.79,ESE,108,5.0,6.0,43,0.00,,,0.00,Wunderground v.1.15,2013-02-17 21:20:00,
2013-02-17 15:25:00,56.2,34.0,29.78,West,263,6.0,6.0,43,0.00,,,0.00,Wunderground v.1.15,2013-02-17 21:25:00,
2013-02-17 15:35:00,56.7,34.4,29.78,NW,319,5.0,6.0,43,0.00,,,0.00,Wunderground v.1.15,2013-02-17 21:35:00,
2013-02-17 15:45:00,56.7,34.4,29.78,NE,44,6.0,7.0,43,0.00,,,0.00,Wunderground v.1.15,2013-02-17 21:45:00,
2013-02-17 15:50:00,56.8,34.5,29.78,NW,325,5.0,5.0,43,0.00,,,0.00,Wunderground v.1.15,2013-02-17 21:50:00,
2013-02-17 15:55:00,57.0,34.1,29.77,NW,323,4.0,5.0,42,0.00,,,0.00,Wunderground v.1.15,2013-02-17 21:55:00,
2013-02-17 16:00:00,57.0,34.1,29.77,NW,325,5.0,5.0,42,0.00,,,0.00,Wunderground v.1.15,2013-02-17 22:00:00,
2013-02-17 16:10:00,56.9,34.6,29.77,NW,317,5.0,5.0,43,0.00,,,0.00,Wunderground v.1.15,2013-02-17 22:10:00,
2013-02-17 16:15:00,57.2,34.3,29.76,West,281,5.0,5.0,42,0.00,,,0.00,Wunderground v.1.15,2013-02-17 22:15:00,
2013-02-17 16:20:00,57.5,34.6,29.76,ENE,58,4.0,5.0,42,0.00,,,0.00,Wunderground v.1.15,2013-02-17 22:20:00,
2013-02-17 16:25:00,57.4,34.5,29.76,NW,323,5.0,6.0,42,0.00,,,0.00,Wunderground v.1.15,2013-02-17 22:25:00,
2013-02-17 16:30:00,57.4,34.5,29.76,NW,307,5.0,5.0,42,0.00,,,0.00,Wunderground v.1.15,2013-02-17 22:30:00,
2013-02-17 16:35:00,57.3,34.4,29.75,NNW,338,4.0,5.0,42,0.00,,,0.00,Wunderground v.1.15,2013-02-17 22:35:00,
2013-02-17 16:40:00,57.2,34.3,29.75,NNW,336,4.0,6.0,42,0.00,,,0.00,Wunderground v.1.15,2013-02-17 22:40:00,
2013-02-17 16:50:00,57.1,34.8,29.75,NW,316,5.0,5.0,43,0.00,,,0.00,Wunderground v.1.15,2013-02-17 22:50:00,
2013-02-17 16:55:00,56.9,34.6,29.74,NW,305,5.0,6.0,43,0.00,,,0.00,Wunderground v.1.15,2013-02-17 22:55:00,
2013-02-17 17:00:00,56.9,34.6,29.74,NNW,330,4.0,4.0,43,0.00,,,0.00,Wunderground v.1.15,2013-02-17 23:00:00,
2013-02-17 17:10:00,56.7,35.0,29.74,NW,325,4.0,4.0,44,0.00,,,0.00,Wunderground v.1.15,2013-02-17 23:10:00,
2013-02-17 17:20:00,56.2,34.6,29.74,NW,326,3.0,3.0,44,0.00,,,0.00,Wunderground v.1.15,2013-02-17 23:20:00,
2013-02-17 17:30:00,55.8,34.2,29.74,NW,314,4.0,4.0,44,0.00,,,0.00,Wunderground v.1.15,2013-02-17 23:30:00,
2013-02-17 17:35:00,55.5,34.5,29.74,NW,323,4.0,4.0,45,0.00,,,0.00,Wunderground v.1.15,2013-02-17 23:35:00,
2013-02-17 17:45:00,54.9,33.9,29.73,NW,321,3.0,4.0,45,0.00,,,0.00,Wunderground v.1.15,2013-02-17 23:45:00,
2013-02-17 17:50:00,54.7,34.3,29.73,NW,315,3.0,3.0,46,0.00,,,0.00,Wunderground v.1.15,2013-02-17 23:50:00,
2013-02-17 17:55:00,54.3,33.9,29.72,NW,315,2.0,3.0,46,0.00,,,0.00,Wunderground v.1.15,2013-02-17 23:55:00,
2013-02-17 18:00:00,54.0,33.7,29.72,WNW,292,2.0,2.0,46,0.00,,,0.00,Wunderground v.1.15,2013-02-18 00:00:00,
2013-02-17 18:05:00,53.7,33.9,29.72,NW,310,2.0,2.0,47,0.00,,,0.00,Wunderground v.1.15,2013-02-18 00:05:00,
2013-02-17 18:15:00,53.3,34.1,29.72,NW,314,2.0,2.0,48,0.00,,,0.00,Wunderground v.1.15,2013-02-18 00:15:00,
2013-02-17 18:20:00,53.0,34.3,29.72,NW,309,2.0,2.0,49,0.00,,,0.00,Wunderground v.1.15,2013-02-18 00:20:00,
2013-02-17 18:25:00,53.0,34.3,29.72,NW,325,3.0,3.0,49,0.00,,,0.00,Wunderground v.1.15,2013-02-18 00:25:00,
2013-02-17 18:30:00,52.8,34.2,29.72,NNW,333,3.0,3.0,49,0.00,,,0.00,Wunderground v.1.15,2013-02-18 00:30:00,
2013-02-17 18:40:00,52.6,34.0,29.72,NW,316,3.0,3.0,49,0.00,,,0.00,Wunderground v.1.15,2013-02-18 00:40:00,
2013-02-17 18:45:00,52.6,34.0,29.72,WNW,295,4.0,4.0,49,0.00,,,0.00,Wunderground v.1.15,2013-02-18 00:45:00,
2013-02-17 18:55:00,52.4,33.8,29.71,WNW,299,3.0,4.0,49,0.00,,,0.00,Wunderground v.1.15,2013-02-18 00:55:00,
2013-02-17 19:00:00,52.1,34.0,29.71,NW,316,3.0,3.0,50,0.00,,,0.00,Wunderground v.1.15,2013-02-18 01:00:00,
2013-02-17 19:10:00,51.8,33.7,29.71,WNW,300,4.0,5.0,50,0.00,,,0.00,Wunderground v.1.15,2013-02-18 01:10:00,
2013-02-17 19:15:00,51.7,33.6,29.70,NNE,23,3.0,5.0,50,0.00,,,0.00,Wunderground v.1.15,2013-02-18 01:15:00,
2013-02-17 19:24:00,51.8,33.7,29.70,NW,324,4.0,4.0,50,0.00,,,0.00,Wunderground v.1.15,2013-02-18 01:24:00,
2013-02-17 19:30:00,51.8,33.7,29.70,WNW,297,4.0,4.0,50,0.00,,,0.00,Wunderground v.1.15,2013-02-18 01:30:00,
2013-02-17 19:40:00,51.6,33.6,29.70,NW,305,4.0,4.0,50,0.00,,,0.00,Wunderground v.1.15,2013-02-18 01:40:00,
2013-02-17 19:45:00,51.5,33.5,29.69,NW,309,4.0,5.0,50,0.00,,,0.00,Wunderground v.1.15,2013-02-18 01:45:00,
2013-02-17 19:50:00,51.4,33.4,29.69,NW,318,4.0,5.0,50,0.00,,,0.00,Wunderground v.1.15,2013-02-18 01:50:00,
2013-02-17 20:00:00,51.3,33.8,29.69,WNW,289,5.0,9.0,51,0.00,,,0.00,Wunderground v.1.15,2013-02-18 02:00:00,
2013-02-17 20:10:00,51.1,33.6,29.69,WNW,297,5.0,5.0,51,0.00,,,0.00,Wunderground v.1.15,2013-02-18 02:10:00,
2013-02-17 20:20:00,50.9,33.4,29.69,NW,324,6.0,7.0,51,0.00,,,0.00,Wunderground v.1.15,2013-02-18 02:20:00,
2013-02-17 20:25:00,50.8,33.8,29.68,WNW,295,6.0,7.0,52,0.00,,,0.00,Wunderground v.1.15,2013-02-18 02:25:00,
2013-02-17 20:35:00,50.6,33.6,29.68,WNW,289,5.0,8.0,52,0.00,,,0.00,Wunderground v.1.15,2013-02-18 02:35:00,
2013-02-17 20:40:00,50.5,33.5,29.68,WNW,300,5.0,7.0,52,0.00,,,0.00,Wunderground v.1.15,2013-02-18 02:40:00,
2013-02-17 20:50:00,50.7,33.7,29.68,NNW,336,6.0,8.0,52,0.00,,,0.00,Wunderground v.1.15,2013-02-18 02:50:00,
2013-02-17 21:00:00,50.7,33.7,29.68,NW,316,6.0,6.0,52,0.00,,,0.00,Wunderground v.1.15,2013-02-18 03:00:00,
2013-02-17 21:05:00,50.8,33.8,29.68,North,7,6.0,7.0,52,0.00,,,0.00,Wunderground v.1.15,2013-02-18 03:05:00,
2013-02-17 21:15:00,51.1,33.6,29.68,NW,326,6.0,6.0,51,0.00,,,0.00,Wunderground v.1.15,2013-02-18 03:15:00,
2013-02-17 21:20:00,51.1,33.6,29.68,NW,324,6.0,8.0,51,0.00,,,0.00,Wunderground v.1.15,2013-02-18 03:20:00,
2013-02-17 21:25:00,51.0,33.5,29.68,NW,316,6.0,8.0,51,0.00,,,0.00,Wunderground v.1.15,2013-02-18 03:25:00,
2013-02-17 21:30:00,51.0,33.5,29.68,NW,321,6.0,8.0,51,0.00,,,0.00,Wunderground v.1.15,2013-02-18 03:30:00,
2013-02-17 21:40:00,51.1,33.6,29.67,NW,312,7.0,8.0,51,0.00,,,0.00,Wunderground v.1.15,2013-02-18 03:40:00,
2013-02-17 21:50:00,51.3,33.3,29.67,NNW,335,7.0,7.0,50,0.00,,,0.00,Wunderground v.1.15,2013-02-18 03:50:00,
2013-02-17 22:05:00,51.4,33.4,29.67,NW,315,6.0,6.0,50,0.00,,,0.00,Wunderground v.1.15,2013-02-18 04:05:00,
2013-02-17 22:15:00,51.5,33.5,29.67,NW,319,6.0,6.0,50,0.00,,,0.00,Wunderground v.1.15,2013-02-18 04:15:00,
2013-02-17 22:20:00,51.4,33.4,29.67,NW,325,6.0,13.0,50,0.00,,,0.00,Wunderground v.1.15,2013-02-18 04:20:00,
2013-02-17 22:30:00,51.0,33.0,29.66,NNW,328,6.0,6.0,50,0.00,,,0.00,Wunderground v.1.15,2013-02-18 04:30:00,
2013-02-17 22:35:00,50.9,32.9,29.66,North,8,5.0,5.0,50,0.00,,,0.00,Wunderground v.1.15,2013-02-18 04:35:00,
2013-02-17 22:40:00,50.8,32.8,29.66,North,354,6.0,9.0,50,0.00,,,0.00,Wunderground v.1.15,2013-02-18 04:40:00,
2013-02-17 22:45:00,50.9,33.4,29.66,NW,319,6.0,6.0,51,0.00,,,0.00,Wunderground v.1.15,2013-02-18 04:45:00,
2013-02-17 23:00:00,50.6,33.1,29.65,NNE,32,5.0,5.0,51,0.00,,,0.00,Wunderground v.1.15,2013-02-18 05:00:00,
2013-02-17 23:05:00,50.6,33.1,29.65,NW,315,5.0,5.0,51,0.00,,,0.00,Wunderground v.1.15,2013-02-18 05:05:00,
2013-02-17 23:10:00,50.6,33.1,29.65,North,358,6.0,6.0,51,0.00,,,0.00,Wunderground v.1.15,2013-02-18 05:10:00,
2013-02-17 23:15:00,50.6,33.1,29.65,NNW,333,6.0,6.0,51,0.00,,,0.00,Wunderground v.1.15,2013-02-18 05:15:00,
2013-02-17 23:20:00,50.7,33.2,29.65,NE,39,6.0,6.0,51,0.00,,,0.00,Wunderground v.1.15,2013-02-18 05:20:00,
2013-02-17 23:25:00,50.7,33.2,29.65,NW,326,6.0,6.0,51,0.00,,,0.00,Wunderground v.1.15,2013-02-18 05:25:00,
2013-02-17 23:30:00,50.7,33.2,29.64,WNW,300,6.0,6.0,51,0.00,,,0.00,Wunderground v.1.15,2013-02-18 05:30:00,
2013-02-17 23:40:00,50.6,33.1,29.65,NNW,347,6.0,6.0,51,0.00,,,0.00,Wunderground v.1.15,2013-02-18 05:40:00,
2013-02-17 23:50:00,50.6,33.1,29.65,NNW,333,5.0,5.0,51,0.00,,,0.00,Wunderground v.1.15,2013-02-18 05:50:00,